Location: Belfast
(54.5830°N, 5.9330°W)
Time: 12:58:44
(UTC+00:00)

ISS - Pass Details

Date: 10 December 2017
Orbit: 402 x 406 km, 51.6° (Epoch: 16 December)

Event Time Altitude Azimuth Distance (km) Brightness Sun altitude
Rises 17:58:47 0° 272° (W) 2,333 1.4 -16.0°
Reaches altitude 10° 18:00:56 10° 265° (W) 1,470 0.3 -16.3°
Maximum altitude 18:04:03 41° 194° (SSW) 607 -2.8 -16.8°
Enters shadow 18:05:33 24° 138° (SE) 882 -2.4 -17.0°
